Time,TemperatureF,DewpointF,PressureIn,WindDirection,WindDirectionDegrees,WindSpeedMPH,WindSpeedGustMPH,Humidity,HourlyPrecipIn,Conditions,Clouds,dailyrainin,SoftwareType,DateUTC
2013-09-02 00:01:00,74.5,72.6,29.92,North,0,0.0,0.0,94,0.00,,,0.53,WUHU21623XXSP,2013-09-02 05:01:00,
2013-09-02 00:06:00,74.5,72.6,29.92,North,0,0.0,0.0,94,0.00,,,0.00,WUHU21623XXSP,2013-09-02 05:06:00,
2013-09-02 00:11:00,74.5,72.6,29.92,North,0,0.0,0.0,94,0.00,,,0.00,WUHU21623XXSP,2013-09-02 05:11:00,
2013-09-02 00:16:00,74.5,72.6,29.92,North,0,0.0,0.0,94,0.00,,,0.00,WUHU21623XXSP,2013-09-02 05:16:00,
2013-09-02 00:21:00,74.5,72.6,29.92,North,0,0.0,0.0,94,0.00,,,0.00,WUHU21623XXSP,2013-09-02 05:21:00,
2013-09-02 00:26:00,74.5,72.6,29.92,North,0,0.0,0.0,94,0.00,,,0.00,WUHU21623XXSP,2013-09-02 05:26:00,
2013-09-02 00:31:00,74.5,72.6,29.92,North,0,0.0,0.0,94,0.00,,,0.00,WUHU21623XXSP,2013-09-02 05:31:00,
2013-09-02 00:36:00,74.5,72.6,29.93,North,0,0.0,0.0,94,0.00,,,0.00,WUHU21623XXSP,2013-09-02 05:36:00,
2013-09-02 00:41:00,74.5,72.6,29.93,North,0,0.0,0.0,94,0.00,,,0.00,WUHU21623XXSP,2013-09-02 05:41:00,
2013-09-02 00:46:00,74.5,72.6,29.93,North,0,0.0,0.0,94,0.00,,,0.00,WUHU21623XXSP,2013-09-02 05:46:00,
2013-09-02 00:51:00,74.8,72.8,29.93,North,0,0.0,0.0,94,0.00,,,0.00,WUHU21623XXSP,2013-09-02 05:51:00,
2013-09-02 00:56:00,74.8,73.0,29.93,North,0,0.0,0.0,94,0.00,,,0.00,WUHU21623XXSP,2013-09-02 05:56:00,
2013-09-02 01:01:00,74.8,73.0,29.93,North,0,0.0,0.0,94,0.00,,,0.00,WUHU21623XXSP,2013-09-02 06:01:00,
2013-09-02 01:11:00,74.8,73.0,29.93,North,0,0.0,0.0,94,0.00,,,0.00,WUHU21623XXSP,2013-09-02 06:11:00,
2013-09-02 01:16:00,75.0,73.2,29.93,North,0,0.0,0.0,94,0.00,,,0.00,WUHU21623XXSP,2013-09-02 06:16:00,
2013-09-02 01:21:00,75.0,73.2,29.93,North,0,0.0,0.0,94,0.00,,,0.00,WUHU21623XXSP,2013-09-02 06:21:00,
2013-09-02 01:26:00,75.0,73.2,29.93,North,0,0.0,0.0,94,0.00,,,0.00,WUHU21623XXSP,2013-09-02 06:26:00,
2013-09-02 01:31:00,75.2,73.4,29.93,North,0,0.0,0.0,94,0.04,,,0.04,WUHU21623XXSP,2013-09-02 06:31:00,
2013-09-02 01:36:00,75.4,73.5,29.93,North,0,0.0,0.0,94,0.04,,,0.04,WUHU21623XXSP,2013-09-02 06:36:00,
2013-09-02 01:41:00,75.4,73.5,29.93,North,0,0.0,0.0,94,0.04,,,0.04,WUHU21623XXSP,2013-09-02 06:41:00,
2013-09-02 01:46:00,75.6,73.7,29.92,North,0,0.0,0.0,94,0.04,,,0.04,WUHU21623XXSP,2013-09-02 06:46:00,
2013-09-02 01:51:00,75.7,73.9,29.92,North,0,0.0,0.0,94,0.04,,,0.04,WUHU21623XXSP,2013-09-02 06:51:00,
2013-09-02 01:56:00,75.9,74.1,29.92,North,0,0.0,0.0,94,0.04,,,0.04,WUHU21623XXSP,2013-09-02 06:56:00,
2013-09-02 02:01:00,75.9,74.1,29.92,North,0,0.0,0.0,94,0.04,,,0.04,WUHU21623XXSP,2013-09-02 07:01:00,
2013-09-02 02:06:00,75.9,74.1,29.92,North,0,0.0,0.0,94,0.04,,,0.04,WUHU21623XXSP,2013-09-02 07:06:00,
2013-09-02 02:11:00,76.1,74.1,29.92,North,0,0.0,0.0,94,0.04,,,0.04,WUHU21623XXSP,2013-09-02 07:11:00,
2013-09-02 02:16:00,76.1,74.3,29.92,North,0,0.0,0.0,94,0.04,,,0.04,WUHU21623XXSP,2013-09-02 07:16:00,
2013-09-02 02:21:00,76.1,74.3,29.92,North,0,0.0,0.0,94,0.04,,,0.04,WUHU21623XXSP,2013-09-02 07:21:00,
2013-09-02 02:26:00,76.3,74.3,29.92,North,0,0.0,0.0,94,0.00,,,0.04,WUHU21623XXSP,2013-09-02 07:26:00,
2013-09-02 02:31:00,76.3,74.4,29.92,North,0,0.0,0.0,94,0.00,,,0.04,WUHU21623XXSP,2013-09-02 07:31:00,
2013-09-02 02:36:00,76.3,74.4,29.92,North,0,0.0,0.0,94,0.00,,,0.04,WUHU21623XXSP,2013-09-02 07:36:00,
2013-09-02 02:41:00,76.3,74.4,29.92,North,0,0.0,0.0,94,0.00,,,0.04,WUHU21623XXSP,2013-09-02 07:41:00,
2013-09-02 02:46:00,76.3,74.4,29.92,North,0,0.0,0.0,94,0.00,,,0.04,WUHU21623XXSP,2013-09-02 07:46:00,
2013-09-02 02:51:00,76.3,74.4,29.92,North,0,0.0,0.0,94,0.00,,,0.04,WUHU21623XXSP,2013-09-02 07:51:00,
2013-09-02 02:56:00,76.3,74.4,29.92,North,0,0.0,0.0,94,0.00,,,0.04,WUHU21623XXSP,2013-09-02 07:56:00,
2013-09-02 03:01:00,76.3,74.4,29.92,North,0,0.0,0.0,94,0.00,,,0.04,WUHU21623XXSP,2013-09-02 08:01:00,
2013-09-02 03:06:00,76.3,74.4,29.92,North,0,0.0,0.0,94,0.00,,,0.04,WUHU21623XXSP,2013-09-02 08:06:00,
2013-09-02 03:11:00,76.3,74.4,29.92,North,0,0.0,0.0,94,0.00,,,0.04,WUHU21623XXSP,2013-09-02 08:11:00,
2013-09-02 03:16:00,76.3,74.4,29.92,North,0,0.0,0.0,94,0.00,,,0.04,WUHU21623XXSP,2013-09-02 08:16:00,
2013-09-02 03:21:00,76.3,74.4,29.92,North,0,0.0,0.0,94,0.00,,,0.04,WUHU21623XXSP,2013-09-02 08:21:00,
2013-09-02 03:26:00,76.1,74.3,29.92,North,0,0.0,0.0,94,0.00,,,0.04,WUHU21623XXSP,2013-09-02 08:26:00,
2013-09-02 03:31:00,76.1,74.3,29.92,North,0,0.0,0.0,94,0.00,,,0.04,WUHU21623XXSP,2013-09-02 08:31:00,
2013-09-02 03:36:00,75.9,74.1,29.92,North,0,0.0,0.0,94,0.00,,,0.04,WUHU21623XXSP,2013-09-02 08:36:00,
2013-09-02 03:41:00,75.9,74.1,29.92,North,0,0.0,0.0,94,0.00,,,0.04,WUHU21623XXSP,2013-09-02 08:41:00,
2013-09-02 03:46:00,75.9,74.1,29.92,North,0,0.0,0.0,94,0.00,,,0.04,WUHU21623XXSP,2013-09-02 08:46:00,
2013-09-02 03:51:00,75.9,74.1,29.92,North,0,0.0,0.0,94,0.00,,,0.04,WUHU21623XXSP,2013-09-02 08:51:00,
2013-09-02 03:56:00,75.9,74.1,29.92,North,0,0.0,0.0,94,0.00,,,0.04,WUHU21623XXSP,2013-09-02 08:56:00,
2013-09-02 04:01:00,75.9,74.1,29.92,North,0,0.0,0.0,94,0.00,,,0.04,WUHU21623XXSP,2013-09-02 09:01:00,
2013-09-02 04:06:00,75.7,73.9,29.92,North,0,0.0,0.0,94,0.00,,,0.04,WUHU21623XXSP,2013-09-02 09:06:00,
2013-09-02 04:11:00,75.7,73.9,29.92,North,0,0.0,0.0,94,0.00,,,0.04,WUHU21623XXSP,2013-09-02 09:11:00,
2013-09-02 04:16:00,75.6,73.9,29.92,North,0,0.0,0.0,94,0.00,,,0.04,WUHU21623XXSP,2013-09-02 09:16:00,
2013-09-02 04:21:00,75.4,73.5,29.92,North,0,0.0,0.0,94,0.00,,,0.04,WUHU21623XXSP,2013-09-02 09:21:00,
2013-09-02 04:26:00,75.4,73.5,29.92,North,0,0.0,0.0,94,0.00,,,0.04,WUHU21623XXSP,2013-09-02 09:26:00,
2013-09-02 04:31:00,75.4,73.5,29.92,North,0,0.0,0.0,94,0.00,,,0.04,WUHU21623XXSP,2013-09-02 09:31:00,
2013-09-02 04:36:00,75.4,73.5,29.92,North,0,0.0,0.0,94,0.00,,,0.04,WUHU21623XXSP,2013-09-02 09:36:00,
2013-09-02 04:41:00,75.4,73.5,29.92,North,0,0.0,0.0,94,0.00,,,0.04,WUHU21623XXSP,2013-09-02 09:41:00,
2013-09-02 04:46:00,75.2,73.4,29.92,North,0,0.0,0.0,95,0.00,,,0.04,WUHU21623XXSP,2013-09-02 09:46:00,
2013-09-02 04:51:00,75.0,73.2,29.92,North,0,0.0,0.0,94,0.00,,,0.04,WUHU21623XXSP,2013-09-02 09:51:00,
2013-09-02 04:56:00,75.0,73.5,29.92,North,0,0.0,0.0,95,0.00,,,0.04,WUHU21623XXSP,2013-09-02 09:56:00,
2013-09-02 05:01:00,75.0,73.2,29.92,North,0,0.0,0.0,94,0.00,,,0.04,WUHU21623XXSP,2013-09-02 10:01:00,
2013-09-02 05:06:00,74.8,73.3,29.92,North,0,0.0,0.0,95,0.00,,,0.04,WUHU21623XXSP,2013-09-02 10:06:00,
2013-09-02 05:11:00,74.8,73.3,29.92,North,0,0.0,0.0,95,0.00,,,0.04,WUHU21623XXSP,2013-09-02 10:11:00,
2013-09-02 05:16:00,74.8,73.3,29.92,North,0,0.0,0.0,95,0.00,,,0.04,WUHU21623XXSP,2013-09-02 10:16:00,
2013-09-02 05:21:00,74.8,73.3,29.93,North,0,0.0,0.0,95,0.00,,,0.04,WUHU21623XXSP,2013-09-02 10:21:00,
2013-09-02 05:26:00,74.7,73.1,29.92,North,0,0.0,0.0,95,0.00,,,0.04,WUHU21623XXSP,2013-09-02 10:26:00,
2013-09-02 05:31:00,74.5,73.0,29.92,North,0,0.0,0.0,95,0.00,,,0.04,WUHU21623XXSP,2013-09-02 10:31:00,
2013-09-02 05:36:00,74.5,73.0,29.92,North,0,0.0,0.0,95,0.00,,,0.04,WUHU21623XXSP,2013-09-02 10:36:00,
2013-09-02 05:41:00,74.5,73.0,29.92,North,0,0.0,0.0,95,0.00,,,0.04,WUHU21623XXSP,2013-09-02 10:41:00,
2013-09-02 05:46:00,74.5,73.0,29.93,North,0,0.0,0.0,95,0.00,,,0.04,WUHU21623XXSP,2013-09-02 10:46:00,
2013-09-02 05:51:00,74.7,73.1,29.93,North,0,0.0,0.0,95,0.00,,,0.04,WUHU21623XXSP,2013-09-02 10:51:00,
2013-09-02 05:56:00,74.8,73.3,29.93,North,0,0.0,0.0,95,0.00,,,0.04,WUHU21623XXSP,2013-09-02 10:56:00,
2013-09-02 06:01:00,74.8,73.3,29.93,North,0,0.0,0.0,95,0.00,,,0.04,WUHU21623XXSP,2013-09-02 11:01:00,
2013-09-02 06:06:00,74.8,73.3,29.93,North,0,0.0,0.0,95,0.00,,,0.04,WUHU21623XXSP,2013-09-02 11:06:00,
2013-09-02 06:11:00,75.0,73.5,29.94,North,0,0.0,0.0,95,0.00,,,0.04,WUHU21623XXSP,2013-09-02 11:11:00,
2013-09-02 06:16:00,74.8,73.5,29.94,North,0,0.0,0.0,95,0.00,,,0.04,WUHU21623XXSP,2013-09-02 11:16:00,
2013-09-02 06:21:00,74.8,73.3,29.94,North,0,0.0,0.0,95,0.00,,,0.04,WUHU21623XXSP,2013-09-02 11:21:00,
2013-09-02 06:26:00,74.8,73.3,29.94,North,0,0.0,0.0,95,0.00,,,0.04,WUHU21623XXSP,2013-09-02 11:26:00,
2013-09-02 06:31:00,74.8,73.3,29.94,North,0,0.0,0.0,95,0.00,,,0.04,WUHU21623XXSP,2013-09-02 11:31:00,
2013-09-02 06:36:00,74.8,73.3,29.93,North,0,0.0,0.0,95,0.00,,,0.04,WUHU21623XXSP,2013-09-02 11:36:00,
2013-09-02 06:41:00,74.8,73.3,29.93,North,0,0.0,0.0,95,0.00,,,0.04,WUHU21623XXSP,2013-09-02 11:41:00,
2013-09-02 06:46:00,75.0,73.5,29.93,North,0,0.0,0.0,95,0.00,,,0.04,WUHU21623XXSP,2013-09-02 11:46:00,
2013-09-02 06:51:00,75.0,73.5,29.94,North,0,0.0,0.0,95,0.00,,,0.04,WUHU21623XXSP,2013-09-02 11:51:00,
2013-09-02 06:56:00,75.0,73.5,29.93,North,0,0.0,0.0,95,0.00,,,0.04,WUHU21623XXSP,2013-09-02 11:56:00,
2013-09-02 07:01:00,75.4,73.7,29.94,North,0,0.0,0.0,95,0.00,,,0.04,WUHU21623XXSP,2013-09-02 12:01:00,
2013-09-02 07:06:00,75.4,73.8,29.94,North,0,0.0,0.0,95,0.00,,,0.04,WUHU21623XXSP,2013-09-02 12:06:00,
2013-09-02 07:11:00,75.7,74.2,29.94,North,0,0.0,0.0,95,0.00,,,0.04,WUHU21623XXSP,2013-09-02 12:11:00,
2013-09-02 07:16:00,75.9,74.4,29.95,North,0,0.0,0.0,95,0.00,,,0.04,WUHU21623XXSP,2013-09-02 12:16:00,
2013-09-02 07:21:00,76.3,74.8,29.95,North,0,0.0,0.0,95,0.00,,,0.04,WUHU21623XXSP,2013-09-02 12:21:00,
2013-09-02 07:26:00,76.8,75.1,29.95,North,0,0.0,0.0,95,0.00,,,0.04,WUHU21623XXSP,2013-09-02 12:26:00,
2013-09-02 07:31:00,77.0,75.5,29.95,North,0,0.0,0.0,95,0.00,,,0.04,WUHU21623XXSP,2013-09-02 12:31:00,
2013-09-02 07:36:00,77.5,76.0,29.95,North,0,0.0,0.0,95,0.00,,,0.04,WUHU21623XXSP,2013-09-02 12:36:00,
2013-09-02 07:41:00,77.7,76.2,29.95,North,0,0.0,0.0,95,0.00,,,0.04,WUHU21623XXSP,2013-09-02 12:41:00,
2013-09-02 07:46:00,78.1,76.6,29.96,North,0,0.0,0.0,95,0.00,,,0.04,WUHU21623XXSP,2013-09-02 12:46:00,
2013-09-02 07:51:00,78.4,76.9,29.96,North,0,0.0,0.0,95,0.00,,,0.04,WUHU21623XXSP,2013-09-02 12:51:00,
2013-09-02 07:56:00,78.6,76.8,29.96,North,0,0.0,0.0,94,0.00,,,0.04,WUHU21623XXSP,2013-09-02 12:56:00,
2013-09-02 08:01:00,78.8,77.3,29.96,North,0,0.0,0.0,95,0.00,,,0.04,WUHU21623XXSP,2013-09-02 13:01:00,
2013-09-02 08:06:00,78.8,77.3,29.96,North,0,0.0,0.0,95,0.00,,,0.04,WUHU21623XXSP,2013-09-02 13:06:00,
2013-09-02 08:11:00,78.6,76.8,29.97,North,0,0.0,0.0,94,0.00,,,0.04,WUHU21623XXSP,2013-09-02 13:11:00,
2013-09-02 08:16:00,78.6,76.8,29.97,North,0,0.0,0.0,94,0.00,,,0.04,WUHU21623XXSP,2013-09-02 13:16:00,
2013-09-02 08:21:00,78.4,76.8,29.97,North,0,0.0,0.0,94,0.00,,,0.04,WUHU21623XXSP,2013-09-02 13:21:00,
2013-09-02 08:26:00,78.6,76.8,29.97,North,0,0.0,0.0,94,0.00,,,0.04,WUHU21623XXSP,2013-09-02 13:26:00,
2013-09-02 08:31:00,78.4,76.6,29.97,North,0,0.0,0.0,94,0.00,,,0.04,WUHU21623XXSP,2013-09-02 13:31:00,
2013-09-02 08:36:00,78.6,76.8,29.97,North,0,0.0,0.0,94,0.00,,,0.04,WUHU21623XXSP,2013-09-02 13:36:00,
2013-09-02 08:41:00,78.6,76.8,29.98,North,0,0.0,0.0,93,0.00,,,0.04,WUHU21623XXSP,2013-09-02 13:41:00,
2013-09-02 08:46:00,78.6,76.5,29.97,North,0,0.0,0.0,93,0.00,,,0.04,WUHU21623XXSP,2013-09-02 13:46:00,
2013-09-02 08:51:00,78.8,76.7,29.97,North,0,0.0,0.0,93,0.00,,,0.04,WUHU21623XXSP,2013-09-02 13:51:00,
2013-09-02 08:56:00,79.2,77.0,29.97,North,0,0.0,0.0,93,0.00,,,0.04,WUHU21623XXSP,2013-09-02 13:56:00,
2013-09-02 09:01:00,79.2,76.7,29.97,North,0,0.0,0.0,92,0.00,,,0.04,WUHU21623XXSP,2013-09-02 14:01:00,
2013-09-02 09:06:00,79.3,76.8,29.98,North,0,0.0,0.0,92,0.00,,,0.04,WUHU21623XXSP,2013-09-02 14:06:00,
2013-09-02 09:11:00,79.5,76.5,29.97,North,0,0.0,0.0,91,0.00,,,0.04,WUHU21623XXSP,2013-09-02 14:11:00,
2013-09-02 09:16:00,79.7,76.9,29.97,North,0,0.0,0.0,91,0.00,,,0.04,WUHU21623XXSP,2013-09-02 14:16:00,
2013-09-02 09:21:00,80.1,76.7,29.97,North,0,0.0,0.0,90,0.00,,,0.04,WUHU21623XXSP,2013-09-02 14:21:00,
2013-09-02 09:26:00,80.2,76.9,29.98,North,0,0.0,0.0,90,0.00,,,0.04,WUHU21623XXSP,2013-09-02 14:26:00,
2013-09-02 09:31:00,80.2,77.0,29.98,North,0,0.0,0.0,89,0.00,,,0.04,WUHU21623XXSP,2013-09-02 14:31:00,
2013-09-02 09:36:00,80.4,76.8,29.98,North,0,0.0,0.0,89,0.00,,,0.04,WUHU21623XXSP,2013-09-02 14:36:00,
2013-09-02 09:41:00,80.6,77.0,29.98,North,0,0.0,0.0,88,0.00,,,0.04,WUHU21623XXSP,2013-09-02 14:41:00,
2013-09-02 09:46:00,81.0,77.0,29.98,North,0,0.0,0.0,88,0.00,,,0.04,WUHU21623XXSP,2013-09-02 14:46:00,
2013-09-02 09:51:00,81.0,77.0,29.98,North,0,0.0,0.0,87,0.00,,,0.04,WUHU21623XXSP,2013-09-02 14:51:00,
2013-09-02 09:56:00,81.1,76.9,29.98,North,0,0.0,0.0,87,0.00,,,0.04,WUHU21623XXSP,2013-09-02 14:56:00,
2013-09-02 10:01:00,81.5,77.1,29.98,North,0,0.0,0.0,87,0.00,,,0.04,WUHU21623XXSP,2013-09-02 15:01:00,
2013-09-02 10:06:00,82.0,77.4,29.98,North,0,0.0,0.0,86,0.00,,,0.04,WUHU21623XXSP,2013-09-02 15:06:00,
2013-09-02 10:11:00,82.0,77.4,29.99,North,0,0.0,0.0,86,0.00,,,0.04,WUHU21623XXSP,2013-09-02 15:11:00,
2013-09-02 10:16:00,82.2,77.3,29.99,North,0,0.0,0.0,85,0.00,,,0.04,WUHU21623XXSP,2013-09-02 15:16:00,
2013-09-02 10:21:00,82.6,77.6,29.99,North,0,0.0,0.0,84,0.00,,,0.04,WUHU21623XXSP,2013-09-02 15:21:00,
2013-09-02 10:26:00,82.8,77.3,30.00,North,0,0.0,0.0,84,0.00,,,0.04,WUHU21623XXSP,2013-09-02 15:26:00,
2013-09-02 10:31:00,82.9,77.6,30.00,North,0,0.0,0.0,84,0.00,,,0.04,WUHU21623XXSP,2013-09-02 15:31:00,
2013-09-02 10:36:00,83.1,77.8,30.00,North,0,0.0,0.0,84,0.00,,,0.04,WUHU21623XXSP,2013-09-02 15:36:00,
2013-09-02 10:41:00,83.5,78.1,30.00,North,0,0.0,0.0,84,0.00,,,0.04,WUHU21623XXSP,2013-09-02 15:41:00,
2013-09-02 10:46:00,83.7,77.9,30.00,North,0,0.0,0.0,83,0.00,,,0.04,WUHU21623XXSP,2013-09-02 15:46:00,
2013-09-02 10:51:00,84.0,78.3,30.00,North,0,0.0,0.0,83,0.00,,,0.04,WUHU21623XXSP,2013-09-02 15:51:00,
2013-09-02 10:56:00,84.0,78.3,30.00,North,0,0.0,0.0,83,0.00,,,0.04,WUHU21623XXSP,2013-09-02 15:56:00,
2013-09-02 11:01:00,84.6,78.3,30.00,North,0,0.0,0.0,82,0.00,,,0.04,WUHU21623XXSP,2013-09-02 16:01:00,
2013-09-02 11:06:00,84.7,78.3,29.99,North,0,0.0,0.0,81,0.00,,,0.04,WUHU21623XXSP,2013-09-02 16:06:00,
2013-09-02 11:11:00,85.3,78.4,30.00,North,0,0.0,0.0,80,0.00,,,0.04,WUHU21623XXSP,2013-09-02 16:11:00,
2013-09-02 11:16:00,85.5,78.6,30.00,North,0,0.0,0.0,80,0.00,,,0.04,WUHU21623XXSP,2013-09-02 16:16:00,
2013-09-02 11:21:00,85.6,78.6,29.99,North,0,0.0,0.0,79,0.00,,,0.04,WUHU21623XXSP,2013-09-02 16:21:00,
2013-09-02 11:26:00,85.8,78.6,29.99,North,0,0.0,0.0,79,0.00,,,0.04,WUHU21623XXSP,2013-09-02 16:26:00,
2013-09-02 11:31:00,85.8,78.6,29.99,North,0,0.0,0.0,78,0.00,,,0.04,WUHU21623XXSP,2013-09-02 16:31:00,
2013-09-02 11:36:00,86.0,78.2,29.99,North,0,0.0,0.0,78,0.00,,,0.04,WUHU21623XXSP,2013-09-02 16:36:00,
2013-09-02 11:41:00,86.4,78.3,29.99,North,0,0.0,0.0,77,0.00,,,0.04,WUHU21623XXSP,2013-09-02 16:41:00,
2013-09-02 11:46:00,86.5,78.3,29.99,North,0,0.0,0.0,77,0.00,,,0.04,WUHU21623XXSP,2013-09-02 16:46:00,
2013-09-02 11:51:00,86.5,78.5,29.99,North,0,0.0,0.0,77,0.00,,,0.04,WUHU21623XXSP,2013-09-02 16:51:00,
2013-09-02 11:56:00,87.3,78.4,29.98,North,0,0.0,0.0,75,0.00,,,0.04,WUHU21623XXSP,2013-09-02 16:56:00,
2013-09-02 12:01:00,87.6,78.9,29.98,North,0,0.0,0.0,76,0.00,,,0.04,WUHU21623XXSP,2013-09-02 17:01:00,
2013-09-02 12:06:00,87.8,78.9,29.98,North,0,0.0,0.0,75,0.00,,,0.04,WUHU21623XXSP,2013-09-02 17:06:00,
2013-09-02 12:11:00,88.9,79.5,29.98,North,0,0.0,0.0,74,0.00,,,0.04,WUHU21623XXSP,2013-09-02 17:11:00,
2013-09-02 12:16:00,88.9,79.5,29.98,North,0,0.0,0.0,74,0.00,,,0.04,WUHU21623XXSP,2013-09-02 17:16:00,
2013-09-02 12:21:00,89.4,79.2,29.98,North,0,0.0,0.0,72,0.00,,,0.04,WUHU21623XXSP,2013-09-02 17:21:00,
2013-09-02 12:26:00,89.4,79.2,29.97,North,0,0.0,0.0,72,0.00,,,0.04,WUHU21623XXSP,2013-09-02 17:26:00,
2013-09-02 12:31:00,89.4,79.2,29.97,North,0,0.0,0.0,72,0.00,,,0.04,WUHU21623XXSP,2013-09-02 17:31:00,
2013-09-02 12:36:00,89.4,79.2,29.97,North,0,0.0,0.0,71,0.00,,,0.04,WUHU21623XXSP,2013-09-02 17:36:00,
2013-09-02 12:41:00,89.4,79.2,29.97,North,0,0.0,0.0,72,0.00,,,0.04,WUHU21623XXSP,2013-09-02 17:41:00,
2013-09-02 12:45:00,89.8,79.2,29.98,North,0,0.0,0.0,71,0.00,,,0.04,WUHU21623XXSP,2013-09-02 17:45:00,
2013-09-02 12:50:00,90.1,79.1,29.97,North,0,0.0,0.0,70,0.00,,,0.04,WUHU21623XXSP,2013-09-02 17:50:00,
2013-09-02 12:55:00,90.0,78.5,29.97,North,0,0.0,0.0,69,0.00,,,0.04,WUHU21623XXSP,2013-09-02 17:55:00,
2013-09-02 13:00:00,89.8,78.3,29.96,North,0,0.0,0.0,69,0.00,,,0.04,WUHU21623XXSP,2013-09-02 18:00:00,
2013-09-02 13:05:00,89.4,78.4,29.96,North,0,0.0,0.0,70,0.00,,,0.04,WUHU21623XXSP,2013-09-02 18:05:00,
2013-09-02 13:10:00,89.2,78.7,29.96,North,0,0.0,0.0,71,0.00,,,0.04,WUHU21623XXSP,2013-09-02 18:10:00,
2013-09-02 13:15:00,88.9,78.5,29.96,North,0,0.0,0.0,71,0.00,,,0.04,WUHU21623XXSP,2013-09-02 18:15:00,
2013-09-02 13:20:00,89.2,78.7,29.95,North,0,0.0,0.0,70,0.00,,,0.04,WUHU21623XXSP,2013-09-02 18:20:00,
2013-09-02 13:25:00,89.6,78.4,29.95,North,0,0.0,0.0,70,0.00,,,0.04,WUHU21623XXSP,2013-09-02 18:25:00,
2013-09-02 13:30:00,90.0,78.5,29.95,North,0,0.0,0.0,69,0.00,,,0.04,WUHU21623XXSP,2013-09-02 18:30:00,
2013-09-02 13:35:00,90.9,79.1,29.94,North,0,0.0,0.0,68,0.00,,,0.04,WUHU21623XXSP,2013-09-02 18:35:00,
2013-09-02 13:40:00,91.4,78.8,29.94,North,0,0.0,0.0,67,0.00,,,0.04,WUHU21623XXSP,2013-09-02 18:40:00,
2013-09-02 13:45:00,91.8,79.0,29.94,North,0,0.0,0.0,67,0.00,,,0.04,WUHU21623XXSP,2013-09-02 18:45:00,
2013-09-02 13:50:00,91.6,79.0,29.95,North,0,0.0,0.0,67,0.00,,,0.04,WUHU21623XXSP,2013-09-02 18:50:00,
2013-09-02 13:55:00,90.7,78.7,29.95,North,0,0.0,0.0,68,0.00,,,0.04,WUHU21623XXSP,2013-09-02 18:55:00,
2013-09-02 14:00:00,89.2,78.3,29.95,North,0,0.0,0.0,70,0.00,,,0.04,WUHU21623XXSP,2013-09-02 19:00:00,
2013-09-02 14:05:00,87.1,77.2,29.95,North,0,0.0,0.0,71,0.00,,,0.04,WUHU21623XXSP,2013-09-02 19:05:00,
2013-09-02 14:10:00,85.8,75.8,29.94,North,0,0.0,0.0,72,0.00,,,0.04,WUHU21623XXSP,2013-09-02 19:10:00,
2013-09-02 14:15:00,85.3,75.8,29.94,North,0,0.0,0.0,73,0.00,,,0.04,WUHU21623XXSP,2013-09-02 19:15:00,
2013-09-02 14:20:00,84.7,75.5,29.93,North,0,0.0,0.0,74,0.00,,,0.04,WUHU21623XXSP,2013-09-02 19:20:00,
2013-09-02 14:25:00,84.4,75.6,29.93,North,0,0.0,0.0,75,0.00,,,0.04,WUHU21623XXSP,2013-09-02 19:25:00,
2013-09-02 14:30:00,84.0,75.4,29.94,North,0,0.0,0.0,76,0.00,,,0.04,WUHU21623XXSP,2013-09-02 19:30:00,
2013-09-02 14:35:00,82.6,75.6,29.93,North,0,0.0,0.0,78,0.17,,,0.21,WUHU21623XXSP,2013-09-02 19:35:00,
2013-09-02 14:40:00,81.1,74.5,29.92,North,0,0.0,0.0,80,0.29,,,0.33,WUHU21623XXSP,2013-09-02 19:40:00,
2013-09-02 14:45:00,79.5,73.2,29.92,North,0,0.0,0.0,81,0.35,,,0.39,WUHU21623XXSP,2013-09-02 19:45:00,
2013-09-02 14:50:00,78.4,72.9,29.92,North,0,0.0,0.0,82,0.35,,,0.39,WUHU21623XXSP,2013-09-02 19:50:00,
2013-09-02 14:55:00,78.3,72.9,29.91,North,0,0.0,0.0,83,0.35,,,0.39,WUHU21623XXSP,2013-09-02 19:55:00,
2013-09-02 15:00:00,78.3,73.4,29.91,North,0,0.0,0.0,85,0.35,,,0.39,WUHU21623XXSP,2013-09-02 20:00:00,
2013-09-02 15:05:00,78.6,74.5,29.90,North,0,0.0,0.0,87,0.37,,,0.41,WUHU21623XXSP,2013-09-02 20:05:00,
2013-09-02 15:10:00,79.2,75.7,29.90,North,0,0.0,0.0,89,0.37,,,0.41,WUHU21623XXSP,2013-09-02 20:10:00,
2013-09-02 15:15:00,80.2,77.0,29.90,North,0,0.0,0.0,90,0.37,,,0.41,WUHU21623XXSP,2013-09-02 20:15:00,
2013-09-02 15:20:00,81.0,78.0,29.90,North,0,0.0,0.0,91,0.37,,,0.41,WUHU21623XXSP,2013-09-02 20:20:00,
2013-09-02 15:25:00,81.5,78.6,29.90,North,0,0.0,0.0,91,0.37,,,0.41,WUHU21623XXSP,2013-09-02 20:25:00,
2013-09-02 15:30:00,82.0,78.8,29.90,North,0,0.0,0.0,91,0.37,,,0.41,WUHU21623XXSP,2013-09-02 20:30:00,
2013-09-02 15:35:00,82.6,79.3,29.90,North,0,0.0,0.0,90,0.20,,,0.41,WUHU21623XXSP,2013-09-02 20:35:00,
2013-09-02 15:40:00,83.3,79.7,29.89,North,0,0.0,0.0,89,0.08,,,0.41,WUHU21623XXSP,2013-09-02 20:40:00,
2013-09-02 15:45:00,83.8,80.2,29.90,North,0,0.0,0.0,89,0.02,,,0.41,WUHU21623XXSP,2013-09-02 20:45:00,
2013-09-02 15:50:00,84.0,80.4,29.90,North,0,0.0,0.0,88,0.02,,,0.41,WUHU21623XXSP,2013-09-02 20:50:00,
2013-09-02 15:55:00,83.7,79.3,29.90,North,0,0.0,0.0,87,0.02,,,0.41,WUHU21623XXSP,2013-09-02 20:55:00,
2013-09-02 16:00:00,83.5,78.5,29.90,North,0,0.0,0.0,85,0.00,,,0.41,WUHU21623XXSP,2013-09-02 21:00:00,
2013-09-02 16:05:00,83.5,78.8,29.91,North,0,0.0,0.0,86,0.00,,,0.41,WUHU21623XXSP,2013-09-02 21:05:00,
2013-09-02 16:10:00,83.1,78.5,29.90,North,0,0.0,0.0,86,0.00,,,0.41,WUHU21623XXSP,2013-09-02 21:10:00,
2013-09-02 16:15:00,82.9,78.3,29.90,North,0,0.0,0.0,86,0.00,,,0.41,WUHU21623XXSP,2013-09-02 21:15:00,
2013-09-02 16:20:00,82.9,78.3,29.90,North,0,0.0,0.0,86,0.00,,,0.41,WUHU21623XXSP,2013-09-02 21:20:00,
2013-09-02 16:25:00,83.1,78.5,29.90,North,0,0.0,0.0,86,0.00,,,0.41,WUHU21623XXSP,2013-09-02 21:25:00,
2013-09-02 16:30:00,83.5,78.7,29.90,North,0,0.0,0.0,86,0.00,,,0.41,WUHU21623XXSP,2013-09-02 21:30:00,
2013-09-02 16:35:00,83.8,78.8,29.90,North,0,0.0,0.0,85,0.00,,,0.41,WUHU21623XXSP,2013-09-02 21:35:00,
2013-09-02 16:40:00,84.6,78.8,29.90,North,0,0.0,0.0,84,0.00,,,0.41,WUHU21623XXSP,2013-09-02 21:40:00,
2013-09-02 16:45:00,84.9,79.2,29.90,North,0,0.0,0.0,83,0.00,,,0.41,WUHU21623XXSP,2013-09-02 21:45:00,
2013-09-02 16:50:00,85.3,79.5,29.90,North,0,0.0,0.0,83,0.00,,,0.41,WUHU21623XXSP,2013-09-02 21:50:00,
2013-09-02 16:55:00,85.8,79.5,29.89,North,0,0.0,0.0,82,0.00,,,0.41,WUHU21623XXSP,2013-09-02 21:55:00,
2013-09-02 17:00:00,86.2,79.3,29.89,North,0,0.0,0.0,81,0.00,,,0.41,WUHU21623XXSP,2013-09-02 22:00:00,
2013-09-02 17:05:00,86.4,79.5,29.89,North,0,0.0,0.0,80,0.00,,,0.41,WUHU21623XXSP,2013-09-02 22:05:00,
2013-09-02 17:10:00,86.5,79.3,29.89,North,0,0.0,0.0,79,0.00,,,0.41,WUHU21623XXSP,2013-09-02 22:10:00,
2013-09-02 17:15:00,86.7,79.3,29.90,North,0,0.0,0.0,79,0.00,,,0.41,WUHU21623XXSP,2013-09-02 22:15:00,
2013-09-02 17:20:00,86.7,79.5,29.89,North,0,0.0,0.0,79,0.00,,,0.41,WUHU21623XXSP,2013-09-02 22:20:00,
2013-09-02 17:25:00,86.7,79.5,29.90,North,0,0.0,0.0,79,0.00,,,0.41,WUHU21623XXSP,2013-09-02 22:25:00,
2013-09-02 17:30:00,87.1,79.8,29.89,North,0,0.0,0.0,79,0.00,,,0.41,WUHU21623XXSP,2013-09-02 22:30:00,
2013-09-02 17:35:00,87.1,79.8,29.89,North,0,0.0,0.0,79,0.00,,,0.41,WUHU21623XXSP,2013-09-02 22:35:00,
2013-09-02 17:40:00,87.1,79.8,29.90,North,0,0.0,0.0,79,0.00,,,0.41,WUHU21623XXSP,2013-09-02 22:40:00,
2013-09-02 17:45:00,87.1,79.8,29.90,North,0,0.0,0.0,79,0.00,,,0.41,WUHU21623XXSP,2013-09-02 22:45:00,